Aeroporto :
LOGIN :

Iscrizione | Disclaimer

   EN    FR    IT 

 










Sommario :    VFR   VFR Marginale   IFR   IFR Intensivo   IFR Molto Intensivo
Visibilità : 
Base nubi : 
>= 8 km
>= 3000ft
5 / 8 km
1000 / 3000 ft
1500m / 5 km
500 / 1000 ft
800 / 1500m
200 / 500 ft
< 800m
< 200 ft
Simboli :   Temporali  Nebbia  Neve Forte  Precipitazioni Forti  Vento > 20 kt
SIGMETs :   Varie  Temporali  Ghiacco  Turbolenza  Onda orograficha  Ceneri Vulcaniche






- Altitudine del aeroporto : 525 ft
- Codice IATA : VAF


LFLU - Valence

ULTIMO METAR :
  • 261730Z AUTO 35019KT CAVOK 24/10 Q1025

METARs OBSOLETI :
  • 261700Z AUTO 35018KT CAVOK 25/10 Q1025
  • 261630Z AUTO 35018KT CAVOK 25/11 Q1025
  • 261600Z AUTO 35018G29KT CAVOK 26/11 Q1025
  • 261530Z AUTO 36015KT CAVOK 26/12 Q1025
  • 261500Z AUTO 36018KT CAVOK 25/11 Q1025

TAF N/A



MetMap, La meteo Aeronautica in un colpo d'occhio ! - Copyright ORBIFLY Dicembre 2007 - Disclaimer

ORBIFLY MET'MAP TEAM :

Programmazione e sviluppo : Alexandra Zaïnal
Concezione : Baudouin d'Aumeries
Aiuto per la programmazione : Marc-Olivier Méhu
Supporto tecnico e logistico : Manuel Goepfert
Aiuto per la traduzione : Arnaldo La Scala

Contatto : metmap@orbifly.com




FONTI E CREDITI :

   NOAA